Location: Chevoux
(46.3801°N, 4.9476°E)
Time: 17:26:13
(UTC+00:00)

H-2A R/B - Pass Details

Date: 28 January 2021
Orbit: 734 x 836 km, 98.2° (Epoch: 01 March)

Event Time Altitude Azimuth Distance (km) Brightness Sun altitude
Rises 17:21:19 0° 133° (SE) 3,209 4.9 -7.6°
Reaches altitude 10° 17:23:49 10° 123° (ESE) 2,303 4.1 -8.0°
Maximum altitude 17:28:10 29° 64° (ENE) 1,394 2.8 -8.7°
Drops below altitude 10° 17:32:38 10° 5° (N) 2,374 4.3 -9.5°
Sets 17:35:14 0° 355° (N) 3,326 5.2 -9.9°
